TimeCDT,TemperatureF,Dew PointF,Humidity,Sea Level PressureIn,VisibilityMPH,Wind Direction,Wind SpeedMPH,Gust SpeedMPH,PrecipitationIn,Events,Conditions,WindDirDegrees,DateUTC
12:52 AM,66.9,62.1,84,29.85,-9999.0,Calm,Calm,-,N/A,,Unknown,0,2013-10-12 05:52:00
1:52 AM,66.9,63.0,87,29.88,-9999.0,SSW,6.9,-,0.04,,Unknown,200,2013-10-12 06:52:00
2:52 AM,66.0,62.1,87,29.87,-9999.0,Variable,4.6,-,N/A,,Unknown,0,2013-10-12 07:52:00
3:52 AM,59.0,48.9,69,29.91,-9999.0,Variable,6.9,18.4,N/A,,Unknown,0,2013-10-12 08:52:00
4:52 AM,57.9,46.9,67,29.96,-9999.0,Variable,3.5,-,N/A,,Unknown,0,2013-10-12 09:52:00
5:52 AM,55.0,45.0,69,29.99,-9999.0,North,4.6,-,N/A,,Unknown,350,2013-10-12 10:52:00
6:52 AM,51.1,45.0,80,30.03,-9999.0,Calm,Calm,-,N/A,,Unknown,0,2013-10-12 11:52:00
7:52 AM,50.0,45.0,83,30.06,-9999.0,Calm,Calm,-,N/A,,Unknown,0,2013-10-12 12:52:00
8:52 AM,55.9,45.0,67,30.09,-9999.0,Variable,3.5,-,N/A,,Unknown,0,2013-10-12 13:52:00
9:52 AM,60.1,43.0,53,30.10,-9999.0,NNW,8.1,-,N/A,,Unknown,330,2013-10-12 14:52:00
10:52 AM,63.0,44.1,50,30.11,-9999.0,NW,6.9,-,N/A,,Unknown,310,2013-10-12 15:52:00
11:52 AM,64.9,39.9,40,30.13,-9999.0,North,9.2,-,N/A,,Unknown,350,2013-10-12 16:52:00
12:52 PM,68.0,39.0,35,30.12,-9999.0,North,-9999.0,-,N/A,,Unknown,0,2013-10-12 17:52:00
1:52 PM,69.1,37.0,31,30.13,-9999.0,NW,10.4,19.6,N/A,,Unknown,320,2013-10-12 18:52:00
2:52 PM,71.1,36.0,28,30.12,-9999.0,North,-9999.0,-,N/A,,Unknown,0,2013-10-12 19:52:00
3:52 PM,73.0,34.0,24,30.12,-9999.0,Variable,4.6,-,N/A,,Unknown,0,2013-10-12 20:52:00
4:52 PM,71.1,32.0,24,30.13,-9999.0,Variable,3.5,-,N/A,,Unknown,0,2013-10-12 21:52:00
5:52 PM,69.1,32.0,25,30.15,-9999.0,NW,3.5,-,N/A,,Unknown,320,2013-10-12 22:52:00
6:52 PM,59.0,37.0,44,30.18,-9999.0,Calm,Calm,-,N/A,,Unknown,0,2013-10-12 23:52:00
7:52 PM,55.0,39.9,57,30.19,-9999.0,Calm,Calm,-,N/A,,Unknown,0,2013-10-13 00:52:00
8:52 PM,50.0,39.9,68,30.22,-9999.0,Calm,Calm,-,N/A,,Unknown,0,2013-10-13 01:52:00
9:52 PM,46.9,39.9,77,30.24,-9999.0,Calm,Calm,-,N/A,,Unknown,0,2013-10-13 02:52:00
10:52 PM,46.9,39.9,77,30.27,-9999.0,Calm,Calm,-,N/A,,Unknown,0,2013-10-13 03:52:00
11:52 PM,44.1,39.0,82,30.28,-9999.0,Calm,Calm,-,N/A,,Unknown,0,2013-10-13 04:52:00